Location: Devore Heights
(34.2372°N, 117.4156°W)
Time: 08:47:25
(UTC+00:00)

Vanguard 1 Rocket - Pass Details

Date: 18 September 2024
Orbit: 650 x 4218 km, 34.3° (Epoch: 09 October)

Event Time Altitude Azimuth Distance (km) Brightness Sun altitude
Rises 18:40:46 0° 287° (WNW) 8,171 12.0 54.1°
Reaches altitude 10° 18:47:34 10° 278° (W) 7,352 11.9 54.7°
Maximum altitude 19:06:56 28° 230° (SW) 5,722 12.0 56.1°
Drops below altitude 10° 19:23:14 10° 179° (S) 6,078 12.3 56.9°
Sets 19:28:18 0° 167° (SSE) 6,600 12.3 57.0°
